Miscellaneous Local Product
Issued by NWS North Platte, NE

Home | Current Version | Previous Version | Text Only | Print | Product List | Glossary On
Versions: 1 2 3 4 5 6 7 8 9 10 11 12 13 14 15 16 17 18 19 20 21 22 23 24 25 26 27 28 29 30 31 32 33 34 35 36 37 38 39 40 41 42 43 44 45 46 47 48 49 50
000
AXUS43 KLBF 011710
MISLBF


WESTERN AND NORTH CENTRAL NEBRASKA HOURLY WEATHER ROUNDUP
NATIONAL WEATHER SERVICE NORTH PLATTE NE
1200 PM CDT MON JUN 01 2015

***STATIONS NOT REPORTING VARIABLES SUCH AS SKY/WEATHER OR
PRESSURE ARE PROVIDED BY THE NEBRASKA DEPARTMENT OF
ROADS...RAWS...AND APRS NETWORKS...AND ARE NOT UNDER
NATIONAL WEATHER SERVICE QUALITY CONTROL***

...OBSERVATIONS IN AND NEAR THE EASTERN PANHANDLE OF NEBRASKA...

CITY           SKY/WX    TMP DP  RH WIND       PRES   REMARKS
PINE RIDGE     SUNNY     78  59  51 S13       29.97F
CHADRON        SUNNY     79  60  52 S13       29.95F
ALLIANCE       SUNNY     69  60  73 S17       30.02F
SIDNEY         SUNNY     73  59  61 SE13      30.06S
WHITECLAY        N/A     77  59  53 S15         N/A
CRESCENT LAKE    N/A     68  62  79 SE8         N/A
BIG SPRINGS      N/A     67  60  79 E7          N/A
$$

...OBSERVATIONS IN NORTH CENTRAL NEBRASKA...

CITY           SKY/WX    TMP DP  RH WIND       PRES   REMARKS
VALENTINE      SUNNY     74  59  59 S15       30.00F
THEDFORD       MOSUNNY   68  59  71 S12G20    30.05F
AINSWORTH      MOSUNNY   70  59  68 S15G22    30.03S
O`NEILL        MOSUNNY   72  59  63 S13G21    30.07F
ORD            MOSUNNY   73  57  57 S17G24    30.06F
BROKEN BOW     CLOUDY    70  58  65 SE15G23   30.06F
BROWNLEE         N/A     73  57  58 S18         N/A
VALENTINE NWR    N/A     69  58  68 S14         N/A
SPRINGVIEW       N/A     72  61  67 SW10G17     N/A
HALSEY           N/A     65  57  75 S8G15       N/A
NEWPORT          N/A     73  60  63 S16         N/A
SARGENT          N/A     69  60  72 SE3G12      N/A
CHAMBERS         N/A     76  59  55 E6G13       N/A
EWING            N/A     73  60  64 S8G16       N/A
$$

...OBSERVATIONS IN SOUTHWEST NEBRASKA AND FAR NORTHEAST COLORADO...

CITY           SKY/WX    TMP DP  RH WIND       PRES   REMARKS
WRAY           FAIR      77  59  54 E6        30.04F
IMPERIAL       SUNNY     70  59  68 SE9       30.05S
OGALLALA       PTSUNNY   64  59  82 SE6       30.05F
NORTH PLATTE   CLOUDY    63  57  81 SE9       30.06F
MCCOOK         CLOUDY    67  58  72 SE13      30.05F
LEXINGTON      CLOUDY    68  60  75 S14G21    30.06F
PAXTON           N/A     61  58  91 E5          N/A
GOTHENBURG       N/A     63  55  75 SE9         N/A
CALLAWAY         N/A     71  61  71 S16         N/A
$$

...NORTH PLATTE AREA...

CITY           SKY/WX    TMP DP  RH WIND       PRES   REMARKS
AIRPORT        CLOUDY    63  57  81 SE9       30.06F
$$

...SOME WEATHER OBSERVATIONS FROM AROUND THE REGION...

CITY           SKY/WX    TMP DP  RH WIND       PRES   REMARKS
DENVER         MOSUNNY   79  46  31 NE5       30.10S
LARAMIE        MOSUNNY   73  40  30 SW15      30.17F
CHEYENNE       MOSUNNY   76  46  34 S12       30.12S
SCOTTSBLUFF    SUNNY     75  61  61 SE12      30.00F
RAPID CITY     SUNNY     77  59  53 S15       29.93F
PIERRE         SUNNY     74  59  59 SE15      29.93F
WINNER         FAIR      78  58  49 S17       29.98F
SIOUX FALLS    MOSUNNY   68  51  54 SE16      30.11F
OMAHA          PTSUNNY   69  54  58 VRB6      30.16S
GRAND ISLAND   PTSUNNY   70  56  61 SE17      30.11F
KANSAS CITY    CLOUDY    63  55  75 E9        30.18S
WICHITA        PTSUNNY   69  57  65 SE12      30.13S
HAYS           FAIR      72  57  60 SE15G22   30.07S
LIBERAL        MOSUNNY   75  64  69 S8        30.08R
GOODLAND       SUNNY     79  56  45 SE6       30.04F
$$



USA.gov is the U.S. government's official web portal to all federal, state and local government web resources and services.